This demonstration page uses our WeatherBlox Daily Observations layout. Learn more.

Left ArrowRight Arrow

36.17497, -115.13722

Hourly Observations for August 18, 2021

Temp ( °F °C ) Dew Point ( °F °C ) Humidity (%) Winds ( mph kmh ) Pressure ( in mb ) Visibility ( mi km ) Precip ( " mm )
12:53 am 00:53 Clear with Smoke 90 32.2 51 10.6 26 26 S 24 39 29.62 1003 10 16 0.00 0.00
1:53 am 01:53 Clear with Smoke 89 31.7 51 10.6 27 27 S 17 28 29.62 1003 10 16 0.00 0.00
2:53 am 02:53 Clear with Smoke 88 31.1 51 10.6 28 28 S 10 17 29.63 1003 10 16 0.00 0.00
3:53 am 03:53 Clear with Smoke 87 30.6 51 10.6 29 29 SSE 17 28 29.63 1004 10 16 0.00 0.00
4:53 am 04:53 Clear with Smoke 86 30 51 10.6 30 30 SSE 14 22 29.65 1004 10 16 0.00 0.00
5:53 am 05:53 Clear with Smoke 87 30.6 47 8.3 25 25 S 14 22 29.65 1004 10 16 0.00 0.00
6:53 am 06:53 Sunny with Smoke 85 29.4 51 10.6 31 31 SE 18 30 29.67 1005 10 16 0.00 0.00
7:53 am 07:53 Sunny with Smoke 87 30.6 50 10 28 28 SSE 20 31 29.68 1005 10 16 0.00 0.00
8:53 am 08:53 Sunny with Smoke 89 31.7 46 7.8 23 23 S 24 39 29.68 1005 10 16 0.00 0.00
9:53 am 09:53 Sunny with Smoke 91 32.8 48 8.9 23 23 S 23 37 29.69 1005 10 16 0.00 0.00
10:53 am 10:53 Sunny 94 34.4 49 9.4 21 21 SSW 24 39 29.68 1005 10 16 0.00 0.00
11:53 am 11:53 Sunny 95 35 47 8.3 19 19 SSW 20 31 29.66 1005 10 16 0.00 0.00
12:53 pm 12:53 Sunny 98 36.7 45 7.2 16 16 SSW 22 35 29.65 1004 10 16 0.00 0.00
1:53 pm 13:53 Sunny 99 37.2 44 6.7 15 15 SSW 22 35 29.63 1003 10 16 0.00 0.00
2:53 pm 14:53 Sunny 100 37.8 44 6.7 15 15 SSW 16 26 29.61 1003 10 16 0.00 0.00
3:53 pm 15:53 Sunny 100 37.8 43 6.1 14 14 WSW 17 28 29.59 1002 10 16 0.00 0.00
4:53 pm 16:53 Sunny 99 37.2 41 5 14 14 WSW 13 20 29.58 1002 10 16 0.00 0.00
5:53 pm 17:53 Sunny 98 36.7 41 5 14 14 WSW 17 28 29.58 1002 10 16 0.00 0.00
6:53 pm 18:53 Sunny 96 35.6 44 6.7 17 17 WSW 20 31 29.59 1002 10 16 0.00 0.00
7:53 pm 19:53 Clear 93 33.9 36 2.2 13 13 W 17 28 29.63 1004 10 16 0.00 0.00
8:53 pm 20:53 Clear 91 32.8 24 -4.4 9 9 SW 13 20 29.68 1005 10 16 0.00 0.00
9:53 pm 21:53 Clear 89 31.7 25 -3.9 10 10 SSW 15 24 29.71 1006 10 16 0.00 0.00
10:53 pm 22:53 Clear 85 29.4 42 5.6 22 22 WNW 10 17 29.75 1008 9 14 0.00 0.00
11:53 pm 23:53 Clear 82 27.8 45 7.2 27 27 NW 13 20 29.78 1008 9 14 0.00 0.00

Powered by AerisWeather